Location: Newark
(50.4348°N, 30.5552°E)
Time: 20:51:18
(UTC+00:00)

Courier 1B Rocket - Pass Details

Date: 01 February 2020
Orbit: 920 x 1202 km, 28.2° (Epoch: 27 February)

Event Time Altitude Azimuth Distance (km) Brightness Sun altitude
Rises 07:35:51 0° 220° (SW) 4,076 8.4 14.2°
Reaches altitude 10° 07:41:23 10° 189° (S) 3,074 8.4 14.8°
Maximum altitude 07:43:26 11° 173° (S) 2,962 8.8 14.9°
Drops below altitude 10° 07:45:28 10° 157° (SSE) 3,032 9.6 15.1°
Sets 07:50:47 0° 126° (SE) 3,922 9.6 15.6°
